Flag Weather past 2 weeks in Duluth, Minnesota, U.S.A.

Now
18 °F

Passing clouds.


Feels Like: 6 °F
Forecast: 1 / 11 °F
Wind: 9 mph from Northwest

Location: Sky Harbor Airport

Current Time: Nov 26, 2014 at 6:26:43 PM

Latest Report: Nov 26, 2014 at 5:54 PM


Visibility: 10 mi

Pressure: 30.34 "Hg

Humidity: 68%

Dew point: 9 °F

Location of DuluthLocation

Historic Weather in Duluth — Graph

°F

Duluth temperature yesterday

Maximum temperature yesterday: 25 °F (at 2:53 PM)
Minimum temperature yesterday: 14 °F (at 7:33 AM)
Average temperature yesterday: 19 °F

Past Weeks' High & Low Weather Summary

 TemperatureHumidityPressure
High39 °F (Nov 23, 12:33 PM)100% (Nov 23, 6:33 AM)30.35 "Hg (Nov 23, 6:33 AM)
Low3 °F (Nov 21, 12:33 AM)50% (Nov 15, 2:13 PM)29.23 "Hg (Nov 24, 4:53 AM)
Average22 °F75%29.95 "Hg
* Reported Nov 11 5:13 PM — Nov 26 5:33 PM, Duluth, Weather by CustomWeather, © 2014

Note: Actual official high and low records may vary slightly from our data, if they occured in-between our weather recording intervals... More about our weather records

Advertising

Duluth weather history for previous 24 hours

 ConditionsComfort  
Time TempWeatherWind HumidityBarometerVisibility
5:33 PM
Nov 26
19 °FMostly cloudy.3 mph63%30.33 "Hg10 mi
5:14 PM19 °FOvercast.8 mph68%30.32 "Hg10 mi
4:54 PM19 °FPassing clouds.12 mph63%30.31 "Hg10 mi
4:33 PM19 °FPassing clouds.13 mph63%30.30 "Hg10 mi
4:14 PM21 °FOvercast.10 mph63%30.29 "Hg10 mi
3:53 PM21 °FOvercast.13 mph63%30.28 "Hg10 mi
3:33 PM21 °FOvercast.10 mph63%30.27 "Hg10 mi
2:53 PM23 °FMostly cloudy.12 mph63%30.26 "Hg10 mi
2:33 PM23 °FBroken clouds.No wind63%30.25 "Hg10 mi
2:14 PM21 °FScattered clouds.No wind63%30.25 "Hg10 mi
1:53 PM21 °FScattered clouds.13 mph63%30.24 "Hg10 mi
1:33 PM21 °FScattered clouds.13 mph68%30.24 "Hg10 mi
1:14 PM23 °FScattered clouds.10 mph63%30.24 "Hg10 mi
12:53 PM23 °FBroken clouds.No wind63%30.23 "Hg10 mi
12:34 PM23 °FBroken clouds.No wind68%30.23 "Hg10 mi
12:13 PM25 °FMore clouds than sun.10 mph69%30.22 "Hg10 mi
11:53 AM25 °FMore clouds than sun.No wind69%30.22 "Hg10 mi
11:34 AM25 °FMore clouds than sun.No wind69%30.22 "Hg10 mi
11:13 AM25 °FOvercast.No wind69%30.22 "Hg10 mi
10:53 AM25 °FOvercast.No wind69%30.22 "Hg10 mi
10:33 AM23 °FOvercast.No wind74%30.22 "Hg10 mi
10:13 AM23 °FOvercast.No wind74%30.22 "Hg10 mi
9:53 AM23 °FOvercast.No wind74%30.21 "Hg10 mi
9:34 AM23 °FOvercast.No wind80%30.21 "Hg10 mi
9:13 AM23 °FLight snow. Overcast.No wind80%30.20 "Hg10 mi
8:54 AM23 °FLight snow. Mostly cloudy.No wind80%30.20 "Hg10 mi
8:33 AM23 °FCloudy.No wind74%30.19 "Hg10 mi
8:13 AM23 °FCloudy.5 mph80%30.18 "Hg10 mi
7:53 AM23 °FOvercast.10 mph80%30.18 "Hg10 mi
7:33 AM23 °FLight snow. More clouds than sun.10 mph86%30.17 "Hg5 mi
7:14 AM23 °FLight snow. Overcast.No wind80%30.16 "Hg10 mi
6:53 AM21 °FLight snow. Mostly cloudy.No wind86%30.16 "Hg10 mi
6:33 AM21 °FLight snow. Overcast.No wind86%30.15 "Hg10 mi
6:14 AM21 °FLight snow. Overcast.No wind86%30.15 "Hg10 mi
5:53 AM21 °FLight snow. Mostly cloudy.No wind86%30.14 "Hg7 mi
5:33 AM21 °FLight snow. Mostly cloudy.No wind86%30.13 "Hg7 mi
5:13 AM21 °FLight snow. Overcast.No wind86%30.13 "Hg10 mi
4:54 AM21 °FLight snow. Mostly cloudy.No wind80%30.13 "Hg10 mi
4:33 AM21 °FMostly cloudy.No wind80%30.12 "Hg10 mi
4:13 AM21 °FMostly cloudy.No wind80%30.12 "Hg10 mi
3:54 AM21 °FOvercast.No wind80%30.12 "Hg10 mi
3:33 AM21 °FOvercast.No wind80%30.12 "Hg10 mi
3:13 AM21 °FMostly cloudy.No wind80%30.12 "Hg10 mi
2:54 AM21 °FMostly cloudy.No wind80%30.12 "Hg10 mi
2:33 AM21 °FOvercast.No wind80%30.12 "Hg10 mi
2:13 AM21 °FMostly cloudy.No wind80%30.12 "Hg10 mi
1:54 AM21 °FMostly cloudy.No wind80%30.12 "Hg10 mi
1:33 AM21 °FMostly cloudy.No wind80%30.11 "Hg10 mi
1:13 AM21 °FOvercast.No wind80%30.11 "Hg10 mi
12:54 AM21 °FMostly cloudy.No wind80%30.11 "Hg10 mi
12:33 AM21 °FOvercast.No wind80%30.10 "Hg10 mi
12:13 AM21 °FOvercast.No wind80%30.10 "Hg10 mi
11:54 PM
Nov 25
21 °FOvercast.No wind74%30.10 "Hg10 mi
11:33 PM21 °FOvercast.No wind74%30.10 "Hg10 mi
11:13 PM21 °FMostly cloudy.No wind74%30.10 "Hg10 mi
10:54 PM21 °FMostly cloudy.No wind74%30.10 "Hg10 mi
10:33 PM21 °FOvercast.No wind74%30.10 "Hg10 mi
10:13 PM21 °FOvercast.No wind74%30.09 "Hg10 mi
9:33 PM19 °FOvercast.No wind73%30.08 "Hg10 mi
8:53 PM19 °FOvercast.No wind73%30.07 "Hg10 mi
8:33 PM19 °FOvercast.No wind73%30.07 "Hg10 mi
8:13 PM19 °FOvercast.No wind73%30.07 "Hg10 mi
7:53 PM19 °FOvercast.No wind73%30.07 "Hg10 mi
7:34 PM19 °FOvercast.No wind73%30.06 "Hg10 mi
7:13 PM19 °FOvercast.No wind73%30.06 "Hg10 mi
6:54 PM19 °FOvercast.No wind73%30.05 "Hg10 mi
6:33 PM19 °FPassing clouds.No wind68%30.05 "Hg10 mi
6:13 PM19 °FClear.No wind68%30.04 "Hg10 mi
Weather by CustomWeather, © 2014

See weather overviewHow to use our weather pages